GW3588 Weather Reports


time (UTC)temp
F
wind
direction
speed
knots
gust
knots
rain 1hr
in
rain 24hr
in
rain mn
in
humidity
%
barometer
mb
20260505035824 54 167 10.4 17.4 0.00 0.00 0.00 69
20260505035324 54 168 10.4 20.0 0.00 0.00 0.00 69 1008.2
20260505034824 54 167 10.4 19.1 0.00 0.00 0.00 70
20260505034324 54 163 11.3 17.4 0.00 0.00 0.00 69 1008.2
20260505033824 54 167 9.6 18.2 0.00 0.00 0.00 70 1008.2
20260505033324 54 162 10.4 18.2 0.00 0.00 0.00 71 1008.0
20260505032824 53 161 9.6 16.5 0.00 0.00 0.00 72 1008.2
20260505032324 53 162 9.6 14.8 0.00 0.00 0.00 71 1008.2
20260505031824 54 160 7.0 14.8 0.00 0.00 0.00 69 1008.1
20260505031324 55 164 8.7 14.8 0.00 0.00 0.00 67 1008.1
20260505030824 55 168 11.3 18.2 0.00 0.00 0.00 66 1008.1
20260505030324 55 169 10.4 16.5 0.00 0.00 0.00 66 1008.1
20260505025824 55 167 11.3 18.2 0.00 0.00 0.00 67 1008.0
20260505025324 55 169 9.6 17.4 0.00 0.00 0.00 68 1008.1
20260505024824 54 167 8.7 14.8 0.00 0.00 0.00 70 1008.1
20260505024324 54 161 8.7 13.9 0.00 0.00 0.00 70
20260505023824 54 161 7.8 15.6 0.00 0.00 0.00 70 1008.2
20260505023324 54 161 8.7 15.6 0.00 0.00 0.00 70 1008.2
20260505022824 54 159 10.4 17.4 0.00 0.00 0.00 69 1008.1
20260505022324 54 152 11.3 17.4 0.00 0.00 0.00 71
20260505021824 54 145 9.6 13.9 0.00 0.00 0.00 70 1008.1
20260505021324 54 152 10.4 15.6 0.00 0.00 0.00 69
20260505020824 55 155 10.4 16.5 0.00 0.00 0.00 67 1008.0
20260505020324 57 146 9.6 20.0 0.00 0.00 0.00 63 1008.0
20260505015843 58 173 10.4 20.0 0.00 0.00 0.00 60 1007.9
20260505015724 58 172 11.3 21.7 0.00 0.00 0.00 59 1007.9
20260505014834 59 178 12.2 20.9 0.00 0.00 0.00 58
20260505012424 56 156 12.2 20.9 0.00 0.00 0.00 65
20260505011924 56 157 13.9 20.9 0.00 0.00 0.00 65 1007.3
20260505011423 56 155 13.9 22.6 0.00 0.00 0.00 66
20260505010924 56 156 14.8 21.7 0.00 0.00 0.00 67 1007.1
20260505010424 56 152 13.0 23.5 0.00 0.00 0.00 66 1006.9
20260505005924 56 155 13.9 23.5 0.00 0.00 0.00 66 1006.9
20260505005424 56 154 14.8 22.6 0.00 0.00 0.00 65 1006.8
20260505004924 57 152 15.6 27.8 0.00 0.00 0.00 64
20260505004424 57 153 12.2 30.4 0.00 0.00 0.00 64 1006.6
20260505003923 57 151 16.5 26.9 0.00 0.00 0.00 63 1005.9
20260505003423 57 149 18.2 32.2 0.00 0.00 0.00 62
20260505002923 58 147 17.4 28.7 0.00 0.00 0.00 61 1006.1
20260505002424 58 149 18.2 29.5 0.00 0.00 0.00 61
20260505001923 58 151 19.1 30.4 0.00 0.00 0.00 62
20260505001423 57 152 15.6 25.2 0.00 0.00 0.00 62 1005.7
20260505000923 58 148 18.2 31.3 0.00 0.00 0.00 61
20260505000423 58 147 17.4 26.1 0.00 0.00 0.00 61
20260504235923 58 147 16.5 24.3 0.00 0.00 0.00 61 1005.4
20260504235423 58 151 15.6 22.6 0.00 0.00 0.00 61
20260504234923 57 153 12.2 19.1 0.00 0.00 0.00 61 1005.5
20260504234804 58 156 13.9 19.1 0.00 0.00 0.00 59 1005.5
20260504233956 60 138 7.0 11.3 0.00 0.00 0.00 53 1005.5
20260504233423 62 177 7.8 13.0 0.00 0.00 0.00 48 1005.2
20260504232926 61 176 7.8 12.2 0.00 0.00 0.00 51 1005.1
20260504232430 61 171 7.8 11.3 0.00 0.00 0.00 52
20260504231922 62 181 7.8 11.3 0.00 0.00 0.00 48
20260504230044 64 180 7.0 12.2 0.00 0.00 0.00 45 1004.8
20260504225223 66 188 8.7 12.2 0.00 0.00 0.00 40
20260504223123 66 203 7.8 13.0 0.00 0.00 0.00 39
20260504223024 66 219 9.6 15.6 0.00 0.00 0.00 39 1004.5
20260504222128 65 214 7.0 13.9 0.00 0.00 0.00 42 1004.5
20260504221623 65 193 7.8 13.9 0.00 0.00 0.00 44 1004.6
20260504221023 65 189 8.7 14.8 0.00 0.00 0.00 44 1004.5
20260504220523 64 178 8.7 14.8 0.00 0.00 0.00 44
20260504220025 64 190 8.7 12.2 0.00 0.00 0.00 44
20260504215523 64 185 7.0 13.9 0.00 0.00 0.00 45 1004.3
20260504215023 65 186 8.7 14.8 0.00 0.00 0.00 44
20260504214536 66 177 7.0 13.9 0.00 0.00 0.00 42 1004.4
20260504214436 67 187 12.2 17.4 0.00 0.00 0.00 37 1004.4
20260504213547 66 184 11.3 17.4 0.00 0.00 0.00 41
20260504213237 66 194 11.3 20.0 0.00 0.00 0.00 40 1004.4
20260504212524 65 184 10.4 18.2 0.00 0.00 0.00 43
20260504212029 65 189 11.3 16.5 0.00 0.00 0.00 42 1004.4
20260504211533 65 185 7.8 15.6 0.00 0.00 0.00 44 1004.3
20260504211513 66 180 8.7 14.8 0.00 0.00 0.00 42 1004.4
20260504211310 65 180 7.8 12.2 0.00 0.00 0.00 42 1004.4
20260504205823 65 181 9.6 17.4 0.00 0.00 0.00 41 1004.4
20260504205323 66 194 9.6 15.6 0.00 0.00 0.00 40 1004.3
20260504204823 68 196 10.4 17.4 0.00 0.00 0.00 37 1004.5
20260504204415 67 188 10.4 20.0 0.00 0.00 0.00 39 1004.4
20260504204007 67 181 6.1 13.0 0.00 0.00 0.00 40 1004.6
20260504203323 67 189 8.7 15.6 0.00 0.00 0.00 40 1004.5
20260504202823 67 189 10.4 14.8 0.00 0.00 0.00 39 1004.5
20260504202323 68 197 7.8 13.9 0.00 0.00 0.00 38 1004.6
20260504201823 67 183 7.8 13.0 0.00 0.00 0.00 39
20260504201323 67 175 8.7 15.6 0.00 0.00 0.00 39 1004.6
20260504200823 67 192 11.3 16.5 0.00 0.00 0.00 38
20260504200323 66 189 8.7 21.7 0.00 0.00 0.00 39 1004.5
20260504195823 67 184 10.4 20.0 0.00 0.00 0.00 39 1004.5
20260504195323 67 186 7.8 15.6 0.00 0.00 0.00 38 1004.6
20260504194823 68 185 9.6 17.4 0.00 0.00 0.00 37
20260504194323 68 189 10.4 15.6 0.00 0.00 0.00 37 1004.6
20260504193823 68 183 7.0 14.8 0.00 0.00 0.00 39 1004.6
20260504193323 68 181 10.4 16.5 0.00 0.00 0.00 37 1004.6
20260504192823 68 175 10.4 16.5 0.00 0.00 0.00 38 1004.7
20260504192322 69 174 8.7 17.4 0.00 0.00 0.00 36 1004.7
20260504191822 69 194 10.4 17.4 0.00 0.00 0.00 36 1004.7
20260504191322 68 183 7.0 14.8 0.00 0.00 0.00 39 1004.8
20260504190822 67 194 7.8 16.5 0.00 0.00 0.00 40 1004.8
20260504190322 68 192 9.6 20.0 0.00 0.00 0.00 39 1005.0
20260504185822 67 193 9.6 17.4 0.00 0.00 0.00 38 1004.8
20260504185322 67 181 8.7 20.9 0.00 0.00 0.00 38 1004.9
20260504184824 68 188 10.4 20.9 0.00 0.00 0.00 37 1004.9
20260504184322 67 189 10.4 20.9 0.00 0.00 0.00 38 1004.8
20260504183822 67 191 13.0 21.7 0.00 0.00 0.00 39
20260504183322 67 187 13.0 24.3 0.00 0.00 0.00 37 1004.9
20260504182822 66 184 11.3 21.7 0.00 0.00 0.00 40 1005.0
20260504182322 66 199 13.9 22.6 0.00 0.00 0.00 38 1004.9
20260504181822 67 188 13.0 22.6 0.00 0.00 0.00 38 1005.0
20260504181322 66 190 14.8 23.5 0.00 0.00 0.00 38 1005.0
20260504180822 67 191 13.9 25.2 0.00 0.00 0.00 37 1005.0
20260504180322 66 187 9.6 17.4 0.00 0.00 0.00 41 1005.1
20260504175822 65 184 10.4 19.1 0.00 0.00 0.00 42
20260504175322 66 185 12.2 20.9 0.00 0.00 0.00 42 1005.2
20260504174822 65 192 12.2 18.2 0.00 0.00 0.00 42 1005.3
20260504174322 65 185 11.3 20.0 0.00 0.00 0.00 42 1005.3
20260504173822 65 184 13.0 20.0 0.00 0.00 0.00 41 1005.4
20260504173322 65 188 12.2 21.7 0.00 0.00 0.00 43 1005.3
20260504172722 65 185 13.9 20.0 0.00 0.00 0.00 43
20260504172222 64 195 10.4 19.1 0.00 0.00 0.00 43 1005.4
20260504171722 63 208 10.4 18.2 0.00 0.00 0.00 48
20260504171222 65 188 14.8 26.1 0.00 0.00 0.00 42 1005.3
20260504170722 65 189 12.2 24.3 0.00 0.00 0.00 42 1005.5
20260504170222 64 186 12.2 20.9 0.00 0.00 0.00 44 1005.5
20260504160122 63 182 9.6 16.5 0.00 0.00 0.00 47 1005.8
20260504151122 63 187 9.6 15.6 0.00 0.00 0.00 47 1006.4
20260504150622 64 188 8.7 13.9 0.00 0.00 0.00 44 1006.6
20260504150122 63 193 8.7 15.6 0.00 0.00 0.00 45 1006.7
20260504141121 59 181 6.1 13.0 0.00 0.00 0.00 56 1007.3
20260504140622 58 182 6.1 12.2 0.00 0.00 0.00 57 1007.4
20260504140122 58 170 7.0 11.3 0.00 0.00 0.00 59 1007.4
20260504130621 54 169 7.8 11.3 0.00 0.00 0.00 63 1008.1
20260504130121 53 162 7.0 11.3 0.00 0.00 0.00 61 1008.2
20260504120121 49 174 4.3 7.8 0.00 0.00 0.00 68 1008.8
20260504110621 48 176 7.0 11.3 0.00 0.00 0.00 68
20260504110121 48 180 7.0 12.2 0.00 0.00 0.00 68
20260504100121 48 190 8.7 14.8 0.00 0.00 0.00 67 1008.5
20260504090121 46 185 7.0 11.3 0.00 0.00 0.00 68 1008.4
20260504081620 46 200 8.7 13.9 0.00 0.00 0.00 65 1008.4
20260504081120 46 203 9.6 13.9 0.00 0.00 0.00 66 1008.4
20260504080621 46 204 7.0 12.2 0.00 0.00 0.00 66 1008.3
20260504080121 46 208 7.8 14.8 0.00 0.00 0.00 65 1008.4
20260504070120 46 186 7.0 11.3 0.00 0.00 0.00 68 1008.1
20260504060120 45 192 8.7 12.2 0.00 0.00 0.00 66 1008.2
20260504050620 45 197 6.1 10.4 0.00 0.00 0.00 69 1008.2
20260504050120 45 196 7.0 11.3 0.00 0.00 0.00 69 1008.2
20260504045620 45 199 6.1 12.2 0.00 0.00 0.00 69 1008.2
20260504045120 45 199 7.0 11.3 0.00 0.00 0.00 69 1008.2
20260504044620 45 199 6.1 10.4 0.00 0.00 0.00 69 1008.2
20260504044120 45 194 6.1 9.6 0.00 0.00 0.00 70 1008.2
20260504043620 45 197 5.2 10.4 0.00 0.00 0.00 69 1008.3
20260504043120 45 193 5.2 9.6 0.00 0.00 0.00 70 1008.3
20260504042620 45 194 6.1 9.6 0.00 0.00 0.00 68 1008.2
20260504042120 45 192 7.0 12.2 0.00 0.00 0.00 68 1008.3
20260504041620 45 195 7.0 10.4 0.00 0.00 0.00 69 1008.3
20260504041120 45 188 6.1 9.6 0.00 0.00 0.00 69 1008.2
20260504040620 45 187 6.1 7.8 0.00 0.00 0.00 69 1008.2
20260504040120 45 185 6.1 8.7 0.00 0.00 0.00 68 1008.1